Time,TemperatureF,DewpointF,PressureIn,WindDirection,WindDirectionDegrees,WindSpeedMPH,WindSpeedGustMPH,Humidity,HourlyPrecipIn,Conditions,Clouds,dailyrainin,SoftwareType,DateUTC
2015-04-25 00:04:00,36.5,23.9,29.94,NNE,15,0.0,0.0,60,0.00,,,0.00,Wunderground v.1.15,2015-04-25 04:04:00,
2015-04-25 00:10:00,36.5,23.9,29.93,North,359,0.0,0.0,60,0.00,,,0.00,Wunderground v.1.15,2015-04-25 04:10:00,
2015-04-25 00:16:00,36.5,23.9,29.93,NNW,330,0.0,0.0,60,0.00,,,0.00,Wunderground v.1.15,2015-04-25 04:16:00,
2015-04-25 00:22:00,36.4,23.8,29.93,North,349,0.0,0.0,60,0.00,,,0.00,Wunderground v.1.15,2015-04-25 04:22:00,
2015-04-25 00:28:00,36.2,24.0,29.93,North,4,0.0,0.0,61,0.00,,,0.00,Wunderground v.1.15,2015-04-25 04:28:00,
2015-04-25 00:34:00,35.9,23.7,29.93,WNW,288,0.0,0.0,61,0.00,,,0.00,Wunderground v.1.15,2015-04-25 04:34:00,
2015-04-25 00:40:00,35.7,23.9,29.93,WSW,255,0.0,0.0,62,0.00,,,0.00,Wunderground v.1.15,2015-04-25 04:40:00,
2015-04-25 00:46:00,35.6,23.9,29.93,SW,220,0.0,0.0,62,0.00,,,0.00,Wunderground v.1.15,2015-04-25 04:46:00,
2015-04-25 00:52:00,35.3,23.6,29.93,WSW,246,0.0,0.0,62,0.00,,,0.00,Wunderground v.1.15,2015-04-25 04:52:00,
2015-04-25 00:58:00,35.2,23.5,29.92,West,268,0.0,0.0,62,0.00,,,0.00,Wunderground v.1.15,2015-04-25 04:58:00,
2015-04-25 01:04:00,35.2,23.9,29.92,WNW,299,0.0,0.0,63,0.00,,,0.00,Wunderground v.1.15,2015-04-25 05:04:00,
2015-04-25 01:10:00,35.0,23.7,29.92,SSW,207,0.0,0.0,63,0.00,,,0.00,Wunderground v.1.15,2015-04-25 05:10:00,
2015-04-25 01:16:00,34.9,23.9,29.92,SSW,206,0.0,0.0,64,0.00,,,0.00,Wunderground v.1.15,2015-04-25 05:16:00,
2015-04-25 01:22:00,34.5,24.3,29.92,SSW,206,0.0,0.0,66,0.00,,,0.00,Wunderground v.1.15,2015-04-25 05:22:00,
2015-04-25 01:28:00,34.1,23.9,29.92,SSW,206,0.0,0.0,66,0.00,,,0.00,Wunderground v.1.15,2015-04-25 05:28:00,
2015-04-25 01:34:00,33.7,23.9,29.92,SSW,206,0.0,0.0,67,0.00,,,0.00,Wunderground v.1.15,2015-04-25 05:34:00,
2015-04-25 01:40:00,33.6,23.8,29.92,SSW,206,0.0,0.0,67,0.00,,,0.00,Wunderground v.1.15,2015-04-25 05:40:00,
2015-04-25 01:46:00,33.3,24.2,29.92,SSW,207,0.0,0.0,69,0.00,,,0.00,Wunderground v.1.15,2015-04-25 05:46:00,
2015-04-25 01:52:00,33.3,24.2,29.92,SSW,207,0.0,0.0,69,0.00,,,0.00,Wunderground v.1.15,2015-04-25 05:52:00,
2015-04-25 01:58:00,33.3,24.2,29.91,SW,227,0.0,0.0,69,0.00,,,0.00,Wunderground v.1.15,2015-04-25 05:58:00,
2015-04-25 02:04:00,33.4,24.0,29.92,SW,228,0.0,0.0,68,0.00,,,0.00,Wunderground v.1.15,2015-04-25 06:04:00,
2015-04-25 02:10:00,33.2,23.8,29.91,SW,228,0.0,0.0,68,0.00,,,0.00,Wunderground v.1.15,2015-04-25 06:10:00,
2015-04-25 02:16:00,33.4,24.0,29.91,SW,223,0.0,0.0,68,0.00,,,0.00,Wunderground v.1.15,2015-04-25 06:16:00,
2015-04-25 02:22:00,33.5,23.7,29.91,SW,223,0.0,0.0,67,0.00,,,0.00,Wunderground v.1.15,2015-04-25 06:22:00,
2015-04-25 02:28:00,33.4,23.6,29.91,SW,223,0.0,0.0,67,0.00,,,0.00,Wunderground v.1.15,2015-04-25 06:28:00,
2015-04-25 02:34:00,33.5,23.7,29.91,SW,214,0.0,0.0,67,0.00,,,0.00,Wunderground v.1.15,2015-04-25 06:34:00,
2015-04-25 02:40:00,33.3,23.5,29.91,SW,214,0.0,0.0,67,0.00,,,0.00,Wunderground v.1.15,2015-04-25 06:40:00,
2015-04-25 02:46:00,33.3,23.5,29.91,SSW,200,0.0,0.0,67,0.00,,,0.00,Wunderground v.1.15,2015-04-25 06:46:00,
2015-04-25 02:52:00,33.6,23.8,29.90,SSW,202,0.0,0.0,67,0.00,,,0.00,Wunderground v.1.15,2015-04-25 06:52:00,
2015-04-25 02:58:00,33.6,23.8,29.90,SSW,202,0.0,0.0,67,0.00,,,0.00,Wunderground v.1.15,2015-04-25 06:58:00,
2015-04-25 03:04:00,33.4,24.0,29.90,SSW,202,0.0,0.0,68,0.00,,,0.00,Wunderground v.1.15,2015-04-25 07:04:00,
2015-04-25 03:10:00,33.1,24.0,29.90,SSW,209,0.0,0.0,69,0.00,,,0.00,Wunderground v.1.15,2015-04-25 07:10:00,
2015-04-25 03:16:00,32.9,23.8,29.90,WSW,239,0.0,0.0,69,0.00,,,0.00,Wunderground v.1.15,2015-04-25 07:16:00,
2015-04-25 03:22:00,33.0,23.9,29.90,SW,214,0.0,0.0,69,0.00,,,0.00,Wunderground v.1.15,2015-04-25 07:22:00,
2015-04-25 03:28:00,33.1,23.7,29.90,SSW,213,0.0,0.0,68,0.00,,,0.00,Wunderground v.1.15,2015-04-25 07:28:00,
2015-04-25 03:34:00,33.2,23.8,29.90,South,184,0.0,0.0,68,0.00,,,0.00,Wunderground v.1.15,2015-04-25 07:34:00,
2015-04-25 03:40:00,33.3,23.9,29.90,South,186,0.0,0.0,68,0.00,,,0.00,Wunderground v.1.15,2015-04-25 07:40:00,
2015-04-25 03:46:00,33.6,23.8,29.90,South,181,0.0,0.0,67,0.00,,,0.00,Wunderground v.1.15,2015-04-25 07:46:00,
2015-04-25 03:52:00,33.8,23.6,29.90,SW,229,0.0,0.0,66,0.00,,,0.00,Wunderground v.1.15,2015-04-25 07:52:00,
2015-04-25 03:58:00,34.0,23.8,29.90,SW,224,0.0,0.0,66,0.00,,,0.00,Wunderground v.1.15,2015-04-25 07:58:00,
2015-04-25 04:04:00,33.9,23.7,29.90,SW,223,0.0,0.0,66,0.00,,,0.00,Wunderground v.1.15,2015-04-25 08:04:00,
2015-04-25 04:10:00,33.9,23.7,29.91,SW,223,0.0,0.0,66,0.00,,,0.00,Wunderground v.1.15,2015-04-25 08:10:00,
2015-04-25 04:16:00,33.9,24.1,29.91,SW,233,0.0,0.0,67,0.00,,,0.00,Wunderground v.1.15,2015-04-25 08:16:00,
2015-04-25 04:22:00,33.9,24.4,29.91,SW,231,0.0,0.0,68,0.00,,,0.00,Wunderground v.1.15,2015-04-25 08:22:00,
2015-04-25 04:28:00,33.7,24.6,29.91,SSW,199,0.0,0.0,69,0.00,,,0.00,Wunderground v.1.15,2015-04-25 08:28:00,
2015-04-25 04:34:00,33.7,24.3,29.91,SSW,199,0.0,0.0,68,0.00,,,0.00,Wunderground v.1.15,2015-04-25 08:34:00,
2015-04-25 04:40:00,33.4,24.3,29.91,SSW,199,0.0,0.0,69,0.00,,,0.00,Wunderground v.1.15,2015-04-25 08:40:00,
2015-04-25 04:46:00,32.9,24.5,29.91,SSW,206,0.0,0.0,71,0.00,,,0.00,Wunderground v.1.15,2015-04-25 08:46:00,
2015-04-25 04:52:00,32.7,24.3,29.92,SSW,200,0.0,0.0,71,0.00,,,0.00,Wunderground v.1.15,2015-04-25 08:52:00,
2015-04-25 04:58:00,32.7,24.3,29.92,SSW,200,0.0,0.0,71,0.00,,,0.00,Wunderground v.1.15,2015-04-25 08:58:00,
2015-04-25 05:04:00,32.3,24.3,29.92,SSW,200,0.0,0.0,72,0.00,,,0.00,Wunderground v.1.15,2015-04-25 09:04:00,
2015-04-25 05:10:00,32.1,24.4,29.92,SSW,200,0.0,0.0,73,0.00,,,0.00,Wunderground v.1.15,2015-04-25 09:10:00,
2015-04-25 05:16:00,31.9,24.2,29.92,SSW,200,0.0,0.0,73,0.00,,,0.00,Wunderground v.1.15,2015-04-25 09:16:00,
2015-04-25 05:22:00,31.7,24.4,29.92,SSW,200,0.0,0.0,74,0.00,,,0.00,Wunderground v.1.15,2015-04-25 09:22:00,
2015-04-25 05:28:00,31.6,24.3,29.92,SSW,200,0.0,0.0,74,0.00,,,0.00,Wunderground v.1.15,2015-04-25 09:28:00,
2015-04-25 05:34:00,31.6,24.3,29.92,SSW,200,0.0,0.0,74,0.00,,,0.00,Wunderground v.1.15,2015-04-25 09:34:00,
2015-04-25 05:40:00,31.6,24.3,29.92,SSW,200,0.0,0.0,74,0.00,,,0.00,Wunderground v.1.15,2015-04-25 09:40:00,
2015-04-25 05:46:00,31.4,24.1,29.92,SSW,200,0.0,0.0,74,0.00,,,0.00,Wunderground v.1.15,2015-04-25 09:46:00,
2015-04-25 05:52:00,31.5,24.5,29.92,SSW,212,0.0,0.0,75,0.00,,,0.00,Wunderground v.1.15,2015-04-25 09:52:00,
2015-04-25 05:58:00,31.5,24.5,29.92,SSW,212,0.0,0.0,75,0.00,,,0.00,Wunderground v.1.15,2015-04-25 09:58:00,
2015-04-25 06:04:00,31.5,24.5,29.92,SSW,212,0.0,0.0,75,0.00,,,0.00,Wunderground v.1.15,2015-04-25 10:04:00,
2015-04-25 06:10:00,31.8,24.5,29.92,SW,218,0.0,0.0,74,0.00,,,0.00,Wunderground v.1.15,2015-04-25 10:10:00,
2015-04-25 06:16:00,31.8,24.5,29.92,SSW,213,0.0,0.0,74,0.00,,,0.00,Wunderground v.1.15,2015-04-25 10:16:00,
2015-04-25 06:22:00,31.8,24.5,29.92,SSW,213,0.0,0.0,74,0.00,,,0.00,Wunderground v.1.15,2015-04-25 10:22:00,
2015-04-25 06:28:00,32.1,24.7,29.92,SSW,213,0.0,0.0,74,0.00,,,0.00,Wunderground v.1.15,2015-04-25 10:28:00,
2015-04-25 06:34:00,32.3,24.6,29.92,SSW,203,0.0,0.0,73,0.00,,,0.00,Wunderground v.1.15,2015-04-25 10:34:00,
2015-04-25 06:40:00,32.8,24.8,29.91,SSW,198,0.0,0.0,72,0.00,,,0.00,Wunderground v.1.15,2015-04-25 10:40:00,
2015-04-25 06:46:00,33.3,24.9,29.92,WSW,243,0.0,0.0,71,0.00,,,0.00,Wunderground v.1.15,2015-04-25 10:46:00,
2015-04-25 06:52:00,34.2,25.1,29.92,SSW,196,0.0,0.0,69,0.00,,,0.00,Wunderground v.1.15,2015-04-25 10:52:00,
2015-04-25 06:58:00,34.7,25.6,29.92,WNW,297,0.0,0.0,69,0.00,,,0.00,Wunderground v.1.15,2015-04-25 10:58:00,
2015-04-25 07:04:00,35.1,25.6,29.92,SSW,212,0.0,0.0,68,0.00,,,0.00,Wunderground v.1.15,2015-04-25 11:04:00,
2015-04-25 07:10:00,35.6,25.7,29.92,SSE,162,0.0,0.0,67,0.00,,,0.00,Wunderground v.1.15,2015-04-25 11:10:00,
2015-04-25 07:16:00,36.0,25.7,29.92,SSW,198,0.0,1.0,66,0.00,,,0.00,Wunderground v.1.15,2015-04-25 11:16:00,
2015-04-25 07:22:00,36.3,25.7,29.92,NNW,348,0.0,0.0,65,0.00,,,0.00,Wunderground v.1.15,2015-04-25 11:22:00,
2015-04-25 07:28:00,36.6,25.2,29.92,WSW,253,1.0,1.0,63,0.00,,,0.00,Wunderground v.1.15,2015-04-25 11:28:00,
2015-04-25 07:34:00,36.9,25.5,29.92,WSW,254,1.0,1.0,63,0.00,,,0.00,Wunderground v.1.15,2015-04-25 11:34:00,
2015-04-25 07:46:00,37.6,25.4,29.92,SSE,167,1.0,1.0,61,0.00,,,0.00,Wunderground v.1.15,2015-04-25 11:46:00,
2015-04-25 07:52:00,38.0,25.3,29.92,North,356,1.0,1.0,60,0.00,,,0.00,Wunderground v.1.15,2015-04-25 11:52:00,
2015-04-25 07:58:00,38.2,25.5,29.91,WSW,255,1.0,5.0,60,0.00,,,0.00,Wunderground v.1.15,2015-04-25 11:58:00,
2015-04-25 08:04:00,38.5,25.8,29.91,East,90,1.0,1.0,60,0.00,,,0.00,Wunderground v.1.15,2015-04-25 12:04:00,
2015-04-25 08:10:00,38.7,25.2,29.91,NNW,333,0.0,0.0,58,0.00,,,0.00,Wunderground v.1.15,2015-04-25 12:10:00,
2015-04-25 08:16:00,38.9,25.8,29.90,NE,35,1.0,1.0,59,0.00,,,0.00,Wunderground v.1.15,2015-04-25 12:16:00,
2015-04-25 08:22:00,39.4,25.4,29.90,WSW,241,1.0,1.0,57,0.00,,,0.00,Wunderground v.1.15,2015-04-25 12:22:00,
2015-04-25 08:28:00,39.6,26.0,29.90,SSW,213,1.0,1.0,58,0.00,,,0.00,Wunderground v.1.15,2015-04-25 12:28:00,
2015-04-25 08:34:00,40.0,26.4,29.89,North,4,0.0,3.0,58,0.00,,,0.00,Wunderground v.1.15,2015-04-25 12:34:00,
2015-04-25 08:40:00,40.4,25.9,29.89,West,259,0.0,0.0,56,0.00,,,0.00,Wunderground v.1.15,2015-04-25 12:40:00,
2015-04-25 08:46:00,40.9,26.0,29.89,SW,226,0.0,1.0,55,0.00,,,0.00,Wunderground v.1.15,2015-04-25 12:46:00,
2015-04-25 08:52:00,41.2,25.8,29.89,SSE,159,1.0,3.0,54,0.00,,,0.00,Wunderground v.1.15,2015-04-25 12:52:00,
2015-04-25 08:58:00,41.6,25.7,29.89,ENE,60,1.0,4.0,53,0.00,,,0.00,Wunderground v.1.15,2015-04-25 12:58:00,
2015-04-25 09:10:00,42.4,25.5,29.89,NE,44,1.0,1.0,51,0.00,,,0.00,Wunderground v.1.15,2015-04-25 13:10:00,
2015-04-25 09:16:00,42.8,25.9,29.89,East,101,1.0,2.0,51,0.00,,,0.00,Wunderground v.1.15,2015-04-25 13:16:00,
2015-04-25 09:22:00,43.5,26.1,29.89,NNW,336,1.0,1.0,50,0.00,,,0.00,Wunderground v.1.15,2015-04-25 13:22:00,
2015-04-25 09:28:00,43.5,25.6,29.88,NW,305,2.0,2.0,49,0.00,,,0.00,Wunderground v.1.15,2015-04-25 13:28:00,
2015-04-25 09:34:00,43.7,25.3,29.88,ENE,64,2.0,3.0,48,0.00,,,0.00,Wunderground v.1.15,2015-04-25 13:34:00,
2015-04-25 09:40:00,44.2,26.7,29.88,NW,311,1.0,1.0,50,0.00,,,0.00,Wunderground v.1.15,2015-04-25 13:40:00,
2015-04-25 09:46:00,44.7,26.7,29.88,ESE,117,1.0,1.0,49,0.00,,,0.00,Wunderground v.1.15,2015-04-25 13:46:00,
2015-04-25 09:52:00,45.0,26.0,29.88,North,349,1.0,1.0,47,0.00,,,0.00,Wunderground v.1.15,2015-04-25 13:52:00,
2015-04-25 09:58:00,45.1,25.5,29.88,NNE,21,1.0,1.0,46,0.00,,,0.00,Wunderground v.1.15,2015-04-25 13:58:00,
2015-04-25 10:04:00,45.5,26.4,29.88,North,353,1.0,4.0,47,0.00,,,0.00,Wunderground v.1.15,2015-04-25 14:04:00,
2015-04-25 10:10:00,45.9,26.8,29.88,NW,311,1.0,4.0,47,0.00,,,0.00,Wunderground v.1.15,2015-04-25 14:10:00,
2015-04-25 10:16:00,46.3,27.2,29.88,NW,326,1.0,4.0,47,0.00,,,0.00,Wunderground v.1.15,2015-04-25 14:16:00,
2015-04-25 10:22:00,46.4,26.2,29.88,NNW,333,1.0,2.0,45,0.00,,,0.00,Wunderground v.1.15,2015-04-25 14:22:00,
2015-04-25 10:28:00,46.2,27.6,29.88,WNW,298,1.0,2.0,48,0.00,,,0.00,Wunderground v.1.15,2015-04-25 14:28:00,
2015-04-25 10:34:00,46.9,27.2,29.88,NNE,21,1.0,3.0,46,0.00,,,0.00,Wunderground v.1.15,2015-04-25 14:34:00,
2015-04-25 10:40:00,47.1,27.4,29.87,North,4,1.0,1.0,46,0.00,,,0.00,Wunderground v.1.15,2015-04-25 14:40:00,
2015-04-25 10:46:00,46.9,26.6,29.87,NNE,15,1.0,5.0,45,0.00,,,0.00,Wunderground v.1.15,2015-04-25 14:46:00,
2015-04-25 10:52:00,47.1,27.4,29.87,NW,307,1.0,3.0,46,0.00,,,0.00,Wunderground v.1.15,2015-04-25 14:52:00,
2015-04-25 10:58:00,47.6,27.8,29.86,NNE,31,1.0,4.0,46,0.00,,,0.00,Wunderground v.1.15,2015-04-25 14:58:00,
2015-04-25 11:04:00,47.8,29.0,29.86,NW,312,1.0,3.0,48,0.00,,,0.00,Wunderground v.1.15,2015-04-25 15:04:00,
2015-04-25 11:10:00,48.3,29.5,29.86,WNW,297,1.0,3.0,48,0.00,,,0.00,Wunderground v.1.15,2015-04-25 15:10:00,
2015-04-25 11:16:00,48.6,28.2,29.86,WSW,249,1.0,3.0,45,0.00,,,0.00,Wunderground v.1.15,2015-04-25 15:16:00,
2015-04-25 11:22:00,48.8,27.8,29.85,West,271,1.0,1.0,44,0.00,,,0.00,Wunderground v.1.15,2015-04-25 15:22:00,
2015-04-25 11:28:00,49.6,28.0,29.85,NNW,340,1.0,2.0,43,0.00,,,0.00,Wunderground v.1.15,2015-04-25 15:28:00,
2015-04-25 11:34:00,50.0,29.5,29.85,North,359,1.0,2.0,45,0.00,,,0.00,Wunderground v.1.15,2015-04-25 15:34:00,
2015-04-25 11:40:00,50.3,30.3,29.85,NW,313,0.0,0.0,46,0.00,,,0.00,Wunderground v.1.15,2015-04-25 15:40:00,
2015-04-25 11:46:00,50.6,28.3,29.85,WNW,300,1.0,4.0,42,0.00,,,0.00,Wunderground v.1.15,2015-04-25 15:46:00,
2015-04-25 11:52:00,50.8,27.3,29.85,NNE,12,1.0,3.0,40,0.00,,,0.00,Wunderground v.1.15,2015-04-25 15:52:00,
2015-04-25 11:58:00,51.7,29.3,29.84,North,3,1.0,3.0,42,0.00,,,0.00,Wunderground v.1.15,2015-04-25 15:58:00,
2015-04-25 12:04:00,52.6,29.5,29.84,North,10,0.0,2.0,41,0.00,,,0.00,Wunderground v.1.15,2015-04-25 16:04:00,
2015-04-25 12:10:00,53.1,28.8,29.84,NNW,347,1.0,2.0,39,0.00,,,0.00,Wunderground v.1.15,2015-04-25 16:10:00,
2015-04-25 12:16:00,53.2,31.3,29.83,NNE,23,1.0,2.0,43,0.00,,,0.00,Wunderground v.1.15,2015-04-25 16:16:00,
2015-04-25 12:22:00,53.2,28.2,29.83,North,9,1.0,1.0,38,0.00,,,0.00,Wunderground v.1.15,2015-04-25 16:22:00,
2015-04-25 12:28:00,53.4,31.4,29.83,WSW,237,2.0,2.0,43,0.00,,,0.00,Wunderground v.1.15,2015-04-25 16:28:00,